Flag for Guadeloupe Weather past 2 weeks in Pointe-à-Pitre, Guadeloupe

Now
77 °F

Clear.


Feels Like: 78 °F
Forecast: 77 / 86 °F
Wind: 3 mph from Southeast

Location: Le Raizet - Guadeloupe

Current Time: Sep 22, 2014 at 2:43:25 AM

Latest Report: Sep 22, 2014 at 2:00 AM


Visibility: N/A

Pressure: 29.92 "Hg

Humidity: 89%

Dew point: 73 °F

Location of Pointe-à-PitreLocation

Historic Weather in Pointe-à-Pitre — Graph

°F

Pointe-à-Pitre temperature yesterday

Maximum temperature yesterday: 88 °F (at 11:00 AM)
Minimum temperature yesterday: 77 °F (at 1:00 AM)
Average temperature yesterday: 81 °F

Past Weeks' High & Low Weather Summary

 TemperatureHumidityPressure
High90 °F (Sep 11, 1:00 PM)100% (Sep 20, 1:00 AM)30.07 "Hg (Sep 20, 1:00 AM)
Low73 °F (Sep 9, 2:00 AM)49% (Sep 9, 12:30 PM)29.86 "Hg (Sep 17, 3:36 PM)
Average81 °F78%29.96 "Hg
* Reported Sep 7 2:00 AM — Sep 22 2:00 AM, Pointe-à-Pitre, Weather by CustomWeather, © 2014

Note: Actual official high and low records may vary slightly from our data, if they occured in-between our weather recording intervals... More about our weather records

Advertising

Pointe-à-Pitre weather history for previous 24 hours

 ConditionsComfort  
Time TempWeatherWind HumidityBarometerVisibility
2:00 AM
Sep 22
77 °FClear.3 mph89%29.92 "HgN/A
1:30 AM77 °FPassing clouds.1 mph89%29.92 "HgN/A
1:00 AM77 °FPassing clouds.5 mph89%29.92 "HgN/A
12:30 AM79 °FPartly cloudy.8 mph84%29.95 "HgN/A
12:00 AM79 °FPassing clouds.6 mph89%29.95 "HgN/A
11:30 PM
Sep 21
79 °FPassing clouds.7 mph89%29.95 "HgN/A
11:00 PM79 °FPartly cloudy.8 mph89%29.98 "HgN/A
10:30 PM79 °FLight rain. Passing clouds.6 mph89%29.98 "HgN/A
10:00 PM79 °FPassing clouds.3 mph89%29.98 "HgN/A
9:30 PM79 °FPassing clouds.No wind89%29.98 "HgN/A
9:00 PM79 °FClear.No wind89%29.98 "HgN/A
8:30 PM81 °FPassing clouds.2 mph84%29.95 "HgN/A
8:00 PM81 °FPartly cloudy.5 mph84%29.98 "HgN/A
7:30 PM81 °FPartly cloudy.5 mph84%29.95 "HgN/A
7:00 PM81 °FPassing clouds.3 mph84%29.95 "HgN/A
6:30 PM82 °FPassing clouds.6 mph79%29.92 "HgN/A
6:00 PM82 °FPartly sunny.5 mph79%29.92 "HgN/A
5:30 PM82 °FPartly sunny.7 mph74%29.92 "HgN/A
5:00 PM84 °FPartly sunny.9 mph74%29.89 "HgN/A
4:30 PM84 °FPartly sunny.9 mph70%29.89 "HgN/A
4:00 PM84 °FPartly sunny.10 mph70%29.89 "HgN/A
3:30 PM86 °FPartly sunny.13 mph70%29.89 "HgN/A
3:05 PM84 °FPartly sunny.7 mph74%29.89 "HgN/A
2:30 PM86 °FPartly sunny.10 mph66%29.92 "HgN/A
1:00 PM86 °FPartly sunny.9 mph66%29.95 "HgN/A
12:30 PM86 °FPartly sunny.10 mph66%29.98 "HgN/A
12:00 PM86 °FPartly sunny.9 mph66%29.98 "HgN/A
11:30 AM88 °FPartly sunny.12 mph66%29.98 "HgN/A
11:00 AM88 °FPartly sunny.13 mph66%30.01 "HgN/A
10:04 AM86 °FPartly sunny.13 mph66%30.01 "HgN/A
9:47 AM86 °FPartly sunny.12 mph70%30.01 "HgN/A
9:00 AM86 °FPassing clouds.10 mph70%29.98 "HgN/A
8:00 AM84 °FPassing clouds.7 mph70%29.98 "HgN/A
7:30 AM82 °FPassing clouds.5 mph79%29.98 "HgN/A
7:00 AM79 °FClear.No wind89%29.95 "HgN/A
6:30 AM77 °FBroken clouds.No wind94%29.95 "HgN/A
6:00 AM77 °FBroken clouds.2 mph94%29.92 "HgN/A
5:30 AM77 °FPartly cloudy.1 mph89%29.92 "HgN/A
5:00 AM77 °FPassing clouds.2 mph89%29.92 "HgN/A
4:30 AM79 °FPassing clouds.1 mph84%29.92 "HgN/A
4:00 AM81 °FClear.5 mph84%29.89 "HgN/A
3:30 AM79 °FOvercast.3 mph89%29.89 "HgN/A
3:00 AM79 °FClear.3 mph94%29.89 "HgN/A
2:30 AM77 °FOvercast.No wind94%29.92 "HgN/A
2:00 AM77 °FMostly cloudy.2 mph94%29.92 "HgN/A
Weather by CustomWeather, © 2014

See weather overviewHow to use our weather pages